UPDATE Mit 1. Juli wird auf eine neue Wetterseite umgestellt
Wer schon probieren möchte kann unter https://wetter.hildner.at gerne testen
Die Seite befindet sich noch im Aufbau

Rindlberg West more information Rindlberg West


Stuetzi - Rindlberg Ost more information Stuetzi - Rindlberg Ost


Rain radar more information rain snow radar


You find our weather info also at:

Weather Underground

AWEKAS



IOBERSTE7 History tables / reports. Script startWUhistory.php

Select another period ( hide this area )

Units Period Custom range Directly to
Metric English Both
Daily Weekly Monthly Yearly
use both date-selectors for a custom range
previous Day
With this date

WeatherUnderground graphs for this period ( click here ) Loading the graph can take up to a minute!


Daily Summary for Wednesday Oct 27 2021
Time Temp. ( °C ) Dew pt. ( °C ) Wind ( km/h ) from Gust ( km/h ) Pressure ( hPa ) Humid.( % ) Rainrate ( cm )
High13,2 7,6 12,0 SW ( 203/611 ) 16,0 1029,7 96 -
Average4,7 1,6 3,1 Calm #110/194 4,3 1027,2 81 -
Low0,0 -2,7 -   0,0 1023,1 62 -
Daily Tabular details for Wednesday Oct 27 2021
Time Temp. ( °C ) Dew pt. ( °C ) Wind ( km/h ) from Gust ( km/h ) Pressure ( hPa ) Humid.( % ) Rainrate ( cm )
00:04 1,6 -1,2 6,0 North 8,0 1027,6 82 -
00:09 1,6 -1,1 6,0 North 7,0 1027,5 82 -
00:14 1,7 -0,9 5,0 North 6,0 1027,5 83 -
00:19 1,7 -0,9   Calm   1027,5 83 -
00:24 1,6 -0,9   Calm   1027,6 83 -
00:29 1,5 -1,1   Calm   1027,6 83 -
00:34 1,5 -1,1   Calm   1027,6 83 -
00:39 1,5 -1,1   Calm   1028,7 83 -
00:44 1,6 -0,9   Calm   1028,7 83 -
00:49 1,6 -0,9   Calm   1028,7 83 -
00:54 1,6 -0,9   Calm   1028,7 83 -
00:59 1,6 -0,9   Calm   1028,7 83 -
01:04 1,7 -0,9   Calm   1028,7 83 -
01:09 1,6 -0,9   Calm   1028,7 83 -
01:14 1,6 -0,9   Calm   1027,6 83 -
01:19 1,5 -1,2   Calm   1027,6 82 -
01:24 1,4 -1,4 5,0 North 6,0 1027,7 82 -
01:29 1,3 -1,6 5,0 North 5,0 1027,7 81 -
01:34 1,2 -1,7 4,0 North 5,0 1027,7 81 -
01:39 1,1 -1,6   Calm   1027,7 82 -
01:44 1,1 -1,6 4,0 North 6,0 1027,7 82 -
01:49 1,1 -1,6 6,0 North 7,0 1027,7 82 -
01:54 1,1 -1,6 5,0 NNW 7,0 1027,8 82 -
01:59 0,9 -1,8   Calm   1027,8 82 -
02:04 0,8 -1,9   Calm   1027,9 82 -
02:09 0,8 -1,9   Calm   1027,9 82 -
02:14 0,7 -2,0   Calm   1027,9 82 -
02:19 0,6 -2,1   Calm   1027,9 82 -
02:24 0,6 -2,1   Calm   1027,9 82 -
02:29 0,6 -2,1   Calm   1028,0 82 -
02:34 0,5 -2,2   Calm   1028,0 82 -
02:39 0,5 -2,2   Calm   1028,0 82 -
02:44 0,4 -2,3   Calm   1028,0 82 -
02:49 0,4 -2,2   Calm   1028,0 83 -
02:54 0,4 -2,2   Calm   1028,1 83 -
02:59 0,3 -2,3   Calm   1028,1 82 -
03:04 0,2 -2,5   Calm   1028,1 82 -
03:09 0,1 -2,6   Calm   1028,1 82 -
03:14 0,1 -2,7   Calm   1028,2 82 -
03:19 0,0 -2,7   Calm   1028,2 82 -
03:24 0,0 -2,7 5,0 North 6,0 1028,2 82 -
03:29 0,0 -2,7   Calm   1028,2 82 -
03:34 0,0 -2,6   Calm   1028,2 83 -
03:39 0,0 -2,6   Calm   1028,2 83 -
03:44 0,1 -2,4 5,0 NW 10,0 1028,2 83 -
03:49 0,3 -2,1 6,0 WNW 7,0 1028,1 84 -
03:54 0,5 -1,9 5,0 North 7,0 1028,0 84 -
03:59 0,7 -1,4 5,0 North 6,0 1028,0 86 -
04:04 0,9 -1,0   Calm 5,0 1027,9 87 -
04:09 1,0 -0,9   Calm   1027,8 87 -
04:14 1,1 -0,8   Calm   1027,8 87 -
04:19 1,1 -0,7   Calm   1027,7 88 -
04:24 1,2 -0,6   Calm   1027,7 88 -
04:29 1,2 -0,6   Calm   1027,7 88 -
04:34 1,3 -0,4 3,0 North 5,0 1027,7 88 -
04:39 1,4 -0,4   Calm   1027,7 88 -
04:44 1,4 -0,4   Calm   1027,6 88 -
04:49 1,3 -0,4   Calm   1027,7 88 -
04:54 1,3 -0,4   Calm   1027,7 88 -
04:59 1,2 -0,6   Calm   1027,7 88 -
05:04 1,3 -0,4   Calm   1027,7 88 -
05:09 1,2 -0,7   Calm   1027,7 87 -
05:14 1,1 -0,8   Calm   1027,8 87 -
05:19 1,0 -1,1   Calm   1027,8 86 -
05:24 0,9 -1,2   Calm   1027,8 86 -
05:29 0,9 -1,2   Calm   1027,9 86 -
05:34 0,7 -1,4   Calm   1027,9 86 -
05:39 0,7 -1,4   Calm   1027,9 86 -
05:44 0,7 -1,4   Calm   1027,9 86 -
05:49 0,6 -1,4   Calm   1028,0 86 -
05:54 0,5 -1,6   Calm 5,0 1029,1 86 -
05:59 0,5 -1,6   Calm   1029,1 86 -
06:04 0,5 -1,6   Calm 7,0 1029,1 86 -
06:09 0,4 -1,7 5,0 North 5,0 1029,1 86 -
06:14 0,4 -1,7   Calm   1029,1 86 -
06:19 0,4 -1,7   Calm   1029,1 86 -
06:24 0,4 -1,7   Calm   1029,1 86 -
06:29 0,4 -1,7   Calm   1029,1 86 -
06:34 0,4 -1,5   Calm   1029,1 87 -
06:39 0,3 -1,6   Calm   1029,2 87 -
06:44 0,3 -1,6   Calm   1029,2 87 -
06:49 0,3 -1,6   Calm   1029,2 87 -
06:54 0,3 -1,6   Calm   1029,2 87 -
06:59 0,2 -1,7   Calm   1029,2 87 -
07:04 0,2 -1,7   Calm   1029,2 87 -
07:09 0,2 -1,8   Calm   1029,3 87 -
07:14 0,2 -1,7   Calm   1029,2 87 -
07:19 0,2 -1,7   Calm 6,0 1029,3 87 -
07:24 0,1 -1,8   Calm 5,0 1029,3 87 -
07:29 0,2 -1,7   Calm   1029,3 87 -
07:34 0,2 -1,7   Calm   1029,2 87 -
07:39 0,3 -1,4   Calm   1029,2 88 -
07:44 0,3 -1,4   Calm   1029,2 88 -
07:49 0,3 -1,4   Calm   1029,2 88 -
07:54 0,3 -1,4   Calm   1029,2 88 -
07:59 0,2 -1,7   Calm   1029,2 87 -
08:04 0,2 -1,7   Calm   1029,3 87 -
08:09 0,2 -1,7   Calm   1029,3 87 -
08:14 0,1 -1,8   Calm   1029,3 87 -
08:19 0,1 -1,8   Calm   1029,3 87 -
08:24 0,0 -1,9   Calm   1029,3 87 -
08:29 0,0 -1,9   Calm   1029,3 87 -
08:34 0,0 -1,9   Calm   1029,3 87 -
08:39 0,1 -1,8   Calm   1029,3 87 -
08:44 0,1 -1,8   Calm   1029,3 87 -
08:49 0,2 -1,7   Calm   1029,3 87 -
08:54 0,2 -1,7   Calm   1029,2 87 -
08:59 0,3 -1,6   Calm   1029,2 87 -
09:04 0,5 -1,3   Calm   1029,1 88 -
09:09 0,6 -1,2   Calm   1029,1 88 -
09:14 0,7 -1,1   Calm   1029,1 88 -
09:19 0,9 -0,8   Calm   1029,0 89 -
09:24 1,1 -0,5   Calm   1028,9 89 -
09:29 1,4 -0,2   Calm   1028,8 89 -
09:34 1,7 0,2   Calm   1028,7 90 -
09:39 2,0 0,6   Calm   1029,7 90 -
09:44 2,6 1,3   Calm   1029,5 91 -
09:49 3,0 1,7   Calm   1029,3 91 -
09:54 4,4 3,5   Calm   1029,2 94 -
09:59 5,3 4,6   Calm   1027,5 95 -
10:04 6,1 5,4   Calm   1027,1 96 -
10:09 6,6 6,0   Calm   1026,8 96 -
10:14 7,4 6,7   Calm   1026,5 96 -
10:19 7,9 7,2 2,0 WSW 6,0 1026,3 95 -
10:24 8,3 7,4 6,0 SW 8,0 1026,1 95 -
10:29 8,5 7,6 8,0 SW 12,0 1025,9 94 -
10:34 8,8 7,4 10,0 SW 12,0 1025,8 92 -
10:39 9,0 7,3 12,0 SW 15,0 1025,8 90 -
10:44 9,1 7,2 10,0 SW 12,0 1025,7 88 -
10:49 9,3 7,2 10,0 SW 12,0 1025,6 87 -
10:54 9,5 7,3 7,0 SSW 8,0 1025,5 86 -
10:59 9,8 7,2 7,0 SW 10,0 1025,5 84 -
11:04 9,9 7,2 9,0 SSW 12,0 1025,4 84 -
11:09 10,1 7,2 10,0 SW 12,0 1026,4 82 -
11:14 10,0 6,9 11,0 SW 13,0 1026,4 81 -
11:19 10,2 6,9 10,0 SW 11,0 1026,4 80 -
11:24 10,4 7,1 8,0 SW 12,0 1026,3 80 -
11:29 10,6 7,2 8,0 SW 10,0 1026,3 80 -
11:34 10,7 7,3 9,0 SW 11,0 1026,2 80 -
11:39 10,7 7,0 11,0 WSW 16,0 1026,2 78 -
11:44 10,8 6,7 7,0 WSW 11,0 1026,1 76 -
11:49 10,8 6,7 10,0 WNW 12,0 1026,1 76 -
11:54 10,8 6,6 10,0 West 12,0 1026,1 75 -
11:59 10,9 6,4 10,0 West 12,0 1026,1 74 -
12:04 11,0 6,6 12,0 WSW 15,0 1026,1 74 -
12:09 11,0 6,3 10,0 SW 12,0 1026,1 73 -
12:14 11,1 6,4 11,0 SW 12,0 1026,0 73 -
12:19 11,2 6,6 12,0 SW 12,0 1026,0 73 -
12:24 11,2 6,6 12,0 WSW 12,0 1026,0 73 -
12:29 11,1 6,3 12,0 WSW 14,0 1026,0 72 -
12:34 11,0 6,2 10,0 SW 12,0 1026,1 72 -
12:39 10,9 6,1 8,0 WSW 12,0 1025,0 72 -
12:44 11,0 6,3 9,0 WSW 11,0 1025,0 73 -
12:49 11,0 6,3 9,0 West 12,0 1025,0 73 -
12:54 10,7 5,8 7,0 West 10,0 1025,1 72 -
12:59 10,6 5,3 9,0 WNW 12,0 1025,1 70 -
13:04 10,8 5,6 9,0 NW 12,0 1025,0 70 -
13:09 11,1 6,2 8,0 West 11,0 1025,0 72 -
13:14 11,3 6,2 9,0 SW 12,0 1024,9 71 -
13:19 11,5 6,6 10,0 WNW 12,0 1024,8 72 -
13:24 11,3 6,2 8,0 WNW 11,0 1024,9 71 -
13:29 11,0 5,9 5,0 WNW 7,0 1025,0 71 -
13:34 10,8 5,8 5,0 NW 7,0 1025,0 71 -
13:39 10,6 5,6 4,0 NW 5,0 1025,1 71 -
13:44 10,5 5,4   Calm   1025,2 71 -
13:49 10,4 5,4   Calm   1025,2 71 -
13:54 10,6 5,9 6,0 West 10,0 1025,2 73 -
13:59 10,9 6,1 8,0 WSW 11,0 1025,0 73 -
14:04 10,8 5,9 9,0 West 11,0 1025,0 72 -
14:09 10,7 5,7 8,0 WNW 8,0 1025,1 71 -
14:14 10,6 5,6 5,0 West 8,0 1025,1 71 -
14:19 10,9 5,7 8,0 West 10,0 1025,0 70 -
14:24 11,1 5,8 7,0 NW 8,0 1025,0 70 -
14:29 11,4 5,8 7,0 NW 10,0 1024,8 69 -
14:34 11,6 5,6 6,0 North 8,0 1024,8 67 -
14:39 11,7 5,6 5,0 North 8,0 1024,7 66 -
14:44 11,9 5,7 8,0 NNW 10,0 1024,7 66 -
14:49 12,1 5,7 6,0 NNW 9,0 1024,6 65 -
14:54 12,2 5,8 7,0 NNW 11,0 1024,5 65 -
14:59 12,4 6,0 8,0 NNW 11,0 1024,5 65 -
15:04 12,6 6,2   Calm 5,0 1024,4 65 -
15:09 12,9 6,3 1,0 SSE 8,0 1024,3 64 -
15:14 13,1 6,4 8,0 SE 12,0 1024,2 64 -
15:19 13,2 6,6 6,0 South 11,0 1024,2 64 -
15:24 13,2 6,3 6,0 South 10,0 1024,2 63 -
15:29 13,2 6,3 5,0 South 7,0 1024,1 63 -
15:34 13,2 6,3 3,0 SW 6,0 1024,1 63 -
15:39 13,2 6,3 5,0 SW 8,0 1024,1 63 -
15:44 13,1 6,0 7,0 SW 9,0 1024,2 62 -
15:49 13,0 5,9 6,0 SW 8,0 1024,2 62 -
15:54 13,0 5,9 6,0 SW 8,0 1024,2 62 -
15:59 13,0 5,9 5,0 SW 7,0 1023,1 62 -
16:04 13,0 5,9 5,0 SE 8,0 1023,1 62 -
16:09 12,9 5,8 6,0 South 8,0 1023,1 62 -
Daily Summary for Wednesday Oct 27 2021
Time Temp. ( °C ) Dew pt. ( °C ) Wind ( km/h ) from Gust ( km/h ) Pressure ( hPa ) Humid.( % ) Rainrate ( cm )
High13,2 7,6 12,0 SW ( 203/611 ) 16,0 1029,7 96 -
Average4,7 1,6 3,1 Calm #110/194 4,3 1027,2 81 -
Low0,0 -2,7 -   0,0 1023,1 62 -
Daily Tabular details for Wednesday Oct 27 2021
Time Temp. ( °C ) Dew pt. ( °C ) Wind ( km/h ) from Gust ( km/h ) Pressure ( hPa ) Humid.( % ) Rainrate ( cm )
00:04 1,6 -1,2 6,0 North 8,0 1027,6 82 -
00:09 1,6 -1,1 6,0 North 7,0 1027,5 82 -
00:14 1,7 -0,9 5,0 North 6,0 1027,5 83 -
00:19 1,7 -0,9   Calm   1027,5 83 -
00:24 1,6 -0,9   Calm   1027,6 83 -
00:29 1,5 -1,1   Calm   1027,6 83 -
00:34 1,5 -1,1   Calm   1027,6 83 -
00:39 1,5 -1,1   Calm   1028,7 83 -
00:44 1,6 -0,9   Calm   1028,7 83 -
00:49 1,6 -0,9   Calm   1028,7 83 -
00:54 1,6 -0,9   Calm   1028,7 83 -
00:59 1,6 -0,9   Calm   1028,7 83 -
01:04 1,7 -0,9   Calm   1028,7 83 -
01:09 1,6 -0,9   Calm   1028,7 83 -
01:14 1,6 -0,9   Calm   1027,6 83 -
01:19 1,5 -1,2   Calm   1027,6 82 -
01:24 1,4 -1,4 5,0 North 6,0 1027,7 82 -
01:29 1,3 -1,6 5,0 North 5,0 1027,7 81 -
01:34 1,2 -1,7 4,0 North 5,0 1027,7 81 -
01:39 1,1 -1,6   Calm   1027,7 82 -
01:44 1,1 -1,6 4,0 North 6,0 1027,7 82 -
01:49 1,1 -1,6 6,0 North 7,0 1027,7 82 -
01:54 1,1 -1,6 5,0 NNW 7,0 1027,8 82 -
01:59 0,9 -1,8   Calm   1027,8 82 -
02:04 0,8 -1,9   Calm   1027,9 82 -
02:09 0,8 -1,9   Calm   1027,9 82 -
02:14 0,7 -2,0   Calm   1027,9 82 -
02:19 0,6 -2,1   Calm   1027,9 82 -
02:24 0,6 -2,1   Calm   1027,9 82 -
02:29 0,6 -2,1   Calm   1028,0 82 -
02:34 0,5 -2,2   Calm   1028,0 82 -
02:39 0,5 -2,2   Calm   1028,0 82 -
02:44 0,4 -2,3   Calm   1028,0 82 -
02:49 0,4 -2,2   Calm   1028,0 83 -
02:54 0,4 -2,2   Calm   1028,1 83 -
02:59 0,3 -2,3   Calm   1028,1 82 -
03:04 0,2 -2,5   Calm   1028,1 82 -
03:09 0,1 -2,6   Calm   1028,1 82 -
03:14 0,1 -2,7   Calm   1028,2 82 -
03:19 0,0 -2,7   Calm   1028,2 82 -
03:24 0,0 -2,7 5,0 North 6,0 1028,2 82 -
03:29 0,0 -2,7   Calm   1028,2 82 -
03:34 0,0 -2,6   Calm   1028,2 83 -
03:39 0,0 -2,6   Calm   1028,2 83 -
03:44 0,1 -2,4 5,0 NW 10,0 1028,2 83 -
03:49 0,3 -2,1 6,0 WNW 7,0 1028,1 84 -
03:54 0,5 -1,9 5,0 North 7,0 1028,0 84 -
03:59 0,7 -1,4 5,0 North 6,0 1028,0 86 -
04:04 0,9 -1,0   Calm 5,0 1027,9 87 -
04:09 1,0 -0,9   Calm   1027,8 87 -
04:14 1,1 -0,8   Calm   1027,8 87 -
04:19 1,1 -0,7   Calm   1027,7 88 -
04:24 1,2 -0,6   Calm   1027,7 88 -
04:29 1,2 -0,6   Calm   1027,7 88 -
04:34 1,3 -0,4 3,0 North 5,0 1027,7 88 -
04:39 1,4 -0,4   Calm   1027,7 88 -
04:44 1,4 -0,4   Calm   1027,6 88 -
04:49 1,3 -0,4   Calm   1027,7 88 -
04:54 1,3 -0,4   Calm   1027,7 88 -
04:59 1,2 -0,6   Calm   1027,7 88 -
05:04 1,3 -0,4   Calm   1027,7 88 -
05:09 1,2 -0,7   Calm   1027,7 87 -
05:14 1,1 -0,8   Calm   1027,8 87 -
05:19 1,0 -1,1   Calm   1027,8 86 -
05:24 0,9 -1,2   Calm   1027,8 86 -
05:29 0,9 -1,2   Calm   1027,9 86 -
05:34 0,7 -1,4   Calm   1027,9 86 -
05:39 0,7 -1,4   Calm   1027,9 86 -
05:44 0,7 -1,4   Calm   1027,9 86 -
05:49 0,6 -1,4   Calm   1028,0 86 -
05:54 0,5 -1,6   Calm 5,0 1029,1 86 -
05:59 0,5 -1,6   Calm   1029,1 86 -
06:04 0,5 -1,6   Calm 7,0 1029,1 86 -
06:09 0,4 -1,7 5,0 North 5,0 1029,1 86 -
06:14 0,4 -1,7   Calm   1029,1 86 -
06:19 0,4 -1,7   Calm   1029,1 86 -
06:24 0,4 -1,7   Calm   1029,1 86 -
06:29 0,4 -1,7   Calm   1029,1 86 -
06:34 0,4 -1,5   Calm   1029,1 87 -
06:39 0,3 -1,6   Calm   1029,2 87 -
06:44 0,3 -1,6   Calm   1029,2 87 -
06:49 0,3 -1,6   Calm   1029,2 87 -
06:54 0,3 -1,6   Calm   1029,2 87 -
06:59 0,2 -1,7   Calm   1029,2 87 -
07:04 0,2 -1,7   Calm   1029,2 87 -
07:09 0,2 -1,8   Calm   1029,3 87 -
07:14 0,2 -1,7   Calm   1029,2 87 -
07:19 0,2 -1,7   Calm 6,0 1029,3 87 -
07:24 0,1 -1,8   Calm 5,0 1029,3 87 -
07:29 0,2 -1,7   Calm   1029,3 87 -
07:34 0,2 -1,7   Calm   1029,2 87 -
07:39 0,3 -1,4   Calm   1029,2 88 -
07:44 0,3 -1,4   Calm   1029,2 88 -
07:49 0,3 -1,4   Calm   1029,2 88 -
07:54 0,3 -1,4   Calm   1029,2 88 -
07:59 0,2 -1,7   Calm   1029,2 87 -
08:04 0,2 -1,7   Calm   1029,3 87 -
08:09 0,2 -1,7   Calm   1029,3 87 -
08:14 0,1 -1,8   Calm   1029,3 87 -
08:19 0,1 -1,8   Calm   1029,3 87 -
08:24 0,0 -1,9   Calm   1029,3 87 -
08:29 0,0 -1,9   Calm   1029,3 87 -
08:34 0,0 -1,9   Calm   1029,3 87 -
08:39 0,1 -1,8   Calm   1029,3 87 -
08:44 0,1 -1,8   Calm   1029,3 87 -
08:49 0,2 -1,7   Calm   1029,3 87 -
08:54 0,2 -1,7   Calm   1029,2 87 -
08:59 0,3 -1,6   Calm   1029,2 87 -
09:04 0,5 -1,3   Calm   1029,1 88 -
09:09 0,6 -1,2   Calm   1029,1 88 -
09:14 0,7 -1,1   Calm   1029,1 88 -
09:19 0,9 -0,8   Calm   1029,0 89 -
09:24 1,1 -0,5   Calm   1028,9 89 -
09:29 1,4 -0,2   Calm   1028,8 89 -
09:34 1,7 0,2   Calm   1028,7 90 -
09:39 2,0 0,6   Calm   1029,7 90 -
09:44 2,6 1,3   Calm   1029,5 91 -
09:49 3,0 1,7   Calm   1029,3 91 -
09:54 4,4 3,5   Calm   1029,2 94 -
09:59 5,3 4,6   Calm   1027,5 95 -
10:04 6,1 5,4   Calm   1027,1 96 -
10:09 6,6 6,0   Calm   1026,8 96 -
10:14 7,4 6,7   Calm   1026,5 96 -
10:19 7,9 7,2 2,0 WSW 6,0 1026,3 95 -
10:24 8,3 7,4 6,0 SW 8,0 1026,1 95 -
10:29 8,5 7,6 8,0 SW 12,0 1025,9 94 -
10:34 8,8 7,4 10,0 SW 12,0 1025,8 92 -
10:39 9,0 7,3 12,0 SW 15,0 1025,8 90 -
10:44 9,1 7,2 10,0 SW 12,0 1025,7 88 -
10:49 9,3 7,2 10,0 SW 12,0 1025,6 87 -
10:54 9,5 7,3 7,0 SSW 8,0 1025,5 86 -
10:59 9,8 7,2 7,0 SW 10,0 1025,5 84 -
11:04 9,9 7,2 9,0 SSW 12,0 1025,4 84 -
11:09 10,1 7,2 10,0 SW 12,0 1026,4 82 -
11:14 10,0 6,9 11,0 SW 13,0 1026,4 81 -
11:19 10,2 6,9 10,0 SW 11,0 1026,4 80 -
11:24 10,4 7,1 8,0 SW 12,0 1026,3 80 -
11:29 10,6 7,2 8,0 SW 10,0 1026,3 80 -
11:34 10,7 7,3 9,0 SW 11,0 1026,2 80 -
11:39 10,7 7,0 11,0 WSW 16,0 1026,2 78 -
11:44 10,8 6,7 7,0 WSW 11,0 1026,1 76 -
11:49 10,8 6,7 10,0 WNW 12,0 1026,1 76 -
11:54 10,8 6,6 10,0 West 12,0 1026,1 75 -
11:59 10,9 6,4 10,0 West 12,0 1026,1 74 -
12:04 11,0 6,6 12,0 WSW 15,0 1026,1 74 -
12:09 11,0 6,3 10,0 SW 12,0 1026,1 73 -
12:14 11,1 6,4 11,0 SW 12,0 1026,0 73 -
12:19 11,2 6,6 12,0 SW 12,0 1026,0 73 -
12:24 11,2 6,6 12,0 WSW 12,0 1026,0 73 -
12:29 11,1 6,3 12,0 WSW 14,0 1026,0 72 -
12:34 11,0 6,2 10,0 SW 12,0 1026,1 72 -
12:39 10,9 6,1 8,0 WSW 12,0 1025,0 72 -
12:44 11,0 6,3 9,0 WSW 11,0 1025,0 73 -
12:49 11,0 6,3 9,0 West 12,0 1025,0 73 -
12:54 10,7 5,8 7,0 West 10,0 1025,1 72 -
12:59 10,6 5,3 9,0 WNW 12,0 1025,1 70 -
13:04 10,8 5,6 9,0 NW 12,0 1025,0 70 -
13:09 11,1 6,2 8,0 West 11,0 1025,0 72 -
13:14 11,3 6,2 9,0 SW 12,0 1024,9 71 -
13:19 11,5 6,6 10,0 WNW 12,0 1024,8 72 -
13:24 11,3 6,2 8,0 WNW 11,0 1024,9 71 -
13:29 11,0 5,9 5,0 WNW 7,0 1025,0 71 -
13:34 10,8 5,8 5,0 NW 7,0 1025,0 71 -
13:39 10,6 5,6 4,0 NW 5,0 1025,1 71 -
13:44 10,5 5,4   Calm   1025,2 71 -
13:49 10,4 5,4   Calm   1025,2 71 -
13:54 10,6 5,9 6,0 West 10,0 1025,2 73 -
13:59 10,9 6,1 8,0 WSW 11,0 1025,0 73 -
14:04 10,8 5,9 9,0 West 11,0 1025,0 72 -
14:09 10,7 5,7 8,0 WNW 8,0 1025,1 71 -
14:14 10,6 5,6 5,0 West 8,0 1025,1 71 -
14:19 10,9 5,7 8,0 West 10,0 1025,0 70 -
14:24 11,1 5,8 7,0 NW 8,0 1025,0 70 -
14:29 11,4 5,8 7,0 NW 10,0 1024,8 69 -
14:34 11,6 5,6 6,0 North 8,0 1024,8 67 -
14:39 11,7 5,6 5,0 North 8,0 1024,7 66 -
14:44 11,9 5,7 8,0 NNW 10,0 1024,7 66 -
14:49 12,1 5,7 6,0 NNW 9,0 1024,6 65 -
14:54 12,2 5,8 7,0 NNW 11,0 1024,5 65 -
14:59 12,4 6,0 8,0 NNW 11,0 1024,5 65 -
15:04 12,6 6,2   Calm 5,0 1024,4 65 -
15:09 12,9 6,3 1,0 SSE 8,0 1024,3 64 -
15:14 13,1 6,4 8,0 SE 12,0 1024,2 64 -
15:19 13,2 6,6 6,0 South 11,0 1024,2 64 -
15:24 13,2 6,3 6,0 South 10,0 1024,2 63 -
15:29 13,2 6,3 5,0 South 7,0 1024,1 63 -
15:34 13,2 6,3 3,0 SW 6,0 1024,1 63 -
15:39 13,2 6,3 5,0 SW 8,0 1024,1 63 -
15:44 13,1 6,0 7,0 SW 9,0 1024,2 62 -
15:49 13,0 5,9 6,0 SW 8,0 1024,2 62 -
15:54 13,0 5,9 6,0 SW 8,0 1024,2 62 -
15:59 13,0 5,9 5,0 SW 7,0 1023,1 62 -
16:04 13,0 5,9 5,0 SE 8,0 1023,1 62 -
16:09 12,9 5,8 6,0 South 8,0 1023,1 62 -

Download your copy of this data-set  here

Our weather-data as stored at Weather Underground. Script developed by Jim McMurry. Rewritten for template use Leuven-Template